Simultaneous Nadir Overpasses (SNOs) Predictions

Prediction of SNOs between GOES-17 and NOAA-19 Satellite Orbit:

Table of predicted SNOs for the next 14.0 days since TLE Epoch: 7/14/2024
Index Date Time (GOES-17) GOES-17 Lat,Lon NOAA-19 Lat,Lon Distance(km) Time Diff (sec)
1 07/14/2024 16:01:46 -0.01,-104.73 -0.83,-101.17 406.81 80
2 07/16/2024 04:36:10 -0.00,-104.71 -0.95,-108.78 465.37 80
3 07/17/2024 04:23:52 -0.00,-104.71 -0.26,-105.79 123.88 80
4 07/18/2024 04:08:54 -0.00,-104.70 0.43,-102.80 217.49 80
5 07/20/2024 16:28:15 0.00,-104.72 0.64,-107.41 306.91 80
6 07/21/2024 16:18:37 0.00,-104.72 -0.08,-104.42 34.51 80
7 07/22/2024 16:06:17 -0.00,-104.72 -0.74,-101.42 375.94 80
8 07/24/2024 04:38:04 0.01,-104.69 -1.01,-109.05 497.55 80
9 07/25/2024 04:25:45 0.01,-104.69 -0.30,-106.06 156.11 80
10 07/26/2024 04:10:46 0.01,-104.69 0.36,-103.06 185.47 80
